Flag Weather past 2 weeks in Qikiqtarjuaq, Nunavut Territory, Canada

Now
18 °F

Light snow. Mostly cloudy.


Feels Like: 12 °F
Forecast: N/A
Wind: 3 mph from Southeast

Location: Broughton Island Airport

Current Time: Nov 22, 2014 at 4:48:44 PM

Latest Report: Nov 22, 2014 at 4:00 PM


Visibility: 6 mi

Pressure: 29.36 "Hg

Humidity: 79%

Dew point: 12 °F

Location of QikiqtarjuaqLocation

Historic Weather in Qikiqtarjuaq — Graph

°F

Qikiqtarjuaq temperature yesterday

Maximum temperature yesterday: 16 °F (at 12:00 AM)
Minimum temperature yesterday: 9 °F (at 4:00 PM)
Average temperature yesterday: 13 °F

Past Weeks' High & Low Weather Summary

 TemperatureHumidityPressure
High28 °F (Nov 15, 6:00 AM)100% (Nov 13, 7:00 PM)30.15 "Hg (Nov 13, 7:00 PM)
Low9 °F (Nov 17, 9:00 PM)54% (Nov 11, 8:03 PM)29.00 "Hg (Nov 20, 3:00 PM)
Average20 °F80%29.67 "Hg
* Reported Nov 7 3:00 PM — Nov 22 3:00 PM, Qikiqtarjuaq, Weather by CustomWeather, © 2014

Note: Actual official high and low records may vary slightly from our data, if they occured in-between our weather recording intervals... More about our weather records

Advertising

Qikiqtarjuaq weather history for previous 24 hours

 ConditionsComfort  
Time TempWeatherWind HumidityBarometerVisibility
3:00 PM
Nov 22
16 °FLight snow. Mostly cloudy.7 mph93%29.36 "Hg8 mi
2:00 PM16 °FLight snow. Overcast.7 mph86%29.36 "Hg5 mi
1:00 PM18 °FLight snow. Overcast.5 mph79%29.36 "Hg5 mi
12:00 PM18 °FLight snow. Overcast.3 mph86%29.36 "Hg3 mi
11:00 AM16 °FLight snow. Overcast.3 mph93%29.37 "Hg2 mi
10:00 AM18 °FLight snow. Overcast.No wind86%29.39 "Hg1 mi
9:00 AM18 °FLight snow. Overcast.6 mph86%29.41 "Hg2 mi
8:00 AM18 °FLight snow. Overcast.15 mph93%29.44 "Hg2 mi
7:02 AM18 °FLight snow. Overcast.5 mph86%29.45 "Hg2 mi
6:00 AM16 °FLight snow. Overcast.5 mph93%29.46 "Hg1 mi
5:58 AM16 °FLight snow. Ice fog.5 mph93%29.46 "Hg1 mi
5:00 AM18 °FLight snow. Overcast.8 mph86%29.47 "Hg1 mi
4:49 AM18 °FLight snow. Overcast.8 mph86%29.47 "Hg2 mi
4:00 AM18 °FLight snow. Mostly cloudy.12 mph86%29.48 "Hg3 mi
3:58 AM18 °FLight snow. Mostly cloudy.12 mph86%29.48 "Hg3 mi
3:00 AM18 °FLight snow. Overcast.7 mph86%29.49 "Hg2 mi
2:58 AM18 °FLight snow. Overcast.7 mph86%29.49 "Hg2 mi
2:00 AM16 °FLight snow. Mostly cloudy.2 mph86%29.48 "Hg9 mi
1:00 AM14 °FLight snow. Mostly cloudy.3 mph85%29.48 "Hg4 mi
12:55 AM14 °FLight snow. Mostly cloudy.2 mph85%29.48 "Hg3 mi
12:00 AM14 °FLight snow. Overcast.3 mph85%29.48 "Hg6 mi
11:46 PM
Nov 21
14 °FLight snow. Overcast.3 mph85%29.47 "Hg6 mi
11:02 PM14 °FLight snow. Overcast.3 mph85%29.48 "Hg3 mi
10:00 PM14 °FLight snow. Overcast.3 mph79%29.48 "Hg9 mi
9:00 PM12 °FPartly cloudy.5 mph79%29.47 "Hg9 mi
8:00 PM12 °FPassing clouds.5 mph73%29.47 "Hg9 mi
7:00 PM12 °FPassing clouds.5 mph73%29.46 "Hg9 mi
6:00 PM14 °FOvercast.2 mph73%29.45 "Hg9 mi
5:00 PM10 °FPassing clouds.6 mph72%29.44 "Hg15 mi
4:00 PM9 °FPassing clouds.7 mph78%29.43 "Hg15 mi
Weather by CustomWeather, © 2014

See weather overviewHow to use our weather pages